TimeMST,TemperatureF,Dew PointF,Humidity,Sea Level PressureIn,VisibilityMPH,Wind Direction,Wind SpeedMPH,Gust SpeedMPH,PrecipitationIn,Events,Conditions,WindDirDegrees,DateUTC
12:51 AM,68.0,64.4,88,29.95,8.0,NNE,8.1,-,N/A,,Clear,20,2012-11-18 07:51:00
1:44 AM,66.2,62.6,88,29.95,8.0,NNE,6.9,-,N/A,,Clear,20,2012-11-18 08:44:00
2:43 AM,66.2,60.8,83,29.93,8.0,North,6.9,-,N/A,,Clear,10,2012-11-18 09:43:00
3:43 AM,64.4,62.6,94,29.93,5.0,Calm,Calm,-,N/A,,Clear,0,2012-11-18 10:43:00
4:47 AM,64.4,64.4,100,29.94,0.1,North,8.1,-,N/A,Fog,Fog,360,2012-11-18 11:47:00
5:44 AM,64.4,64.4,100,29.96,0.6,NNE,8.1,-,N/A,,Clear,30,2012-11-18 12:44:00
6:24 AM,64.4,64.4,100,29.98,0.6,NNE,6.9,-,N/A,,Overcast,20,2012-11-18 13:24:00
6:43 AM,66.2,66.2,100,29.98,0.4,NNE,5.8,-,N/A,Fog,Fog,20,2012-11-18 13:43:00
7:16 AM,66.2,66.2,100,29.99,1.0,NNW,6.9,-,N/A,,Mostly Cloudy,330,2012-11-18 14:16:00
7:41 AM,69.8,68.0,94,30.01,2.0,North,6.9,-,N/A,,Mostly Cloudy,360,2012-11-18 14:41:00
8:06 AM,69.8,68.0,94,30.01,5.0,North,6.9,-,N/A,,Scattered Clouds,360,2012-11-18 15:06:00
8:40 AM,73.4,71.6,94,30.02,7.0,North,6.9,-,N/A,,Partly Cloudy,10,2012-11-18 15:40:00
9:45 AM,78.8,71.6,78,30.04,8.0,NNE,3.5,-,N/A,,Scattered Clouds,20,2012-11-18 16:45:00
10:47 AM,80.6,69.8,70,30.02,8.0,ESE,6.9,-,N/A,,Partly Cloudy,110,2012-11-18 17:47:00
11:40 AM,84.2,69.8,62,30.00,10.0,SW,6.9,-,N/A,,Scattered Clouds,220,2012-11-18 18:40:00
12:44 PM,84.2,68.0,58,29.97,10.0,SSW,9.2,-,N/A,,Mostly Cloudy,210,2012-11-18 19:44:00
1:40 PM,84.2,66.2,55,29.95,10.0,WSW,8.1,-,N/A,,Mostly Cloudy,240,2012-11-18 20:40:00
2:41 PM,84.2,68.0,58,29.95,10.0,WSW,11.5,-,N/A,,Mostly Cloudy,250,2012-11-18 21:41:00
3:42 PM,84.2,66.2,55,29.94,10.0,SW,8.1,-,N/A,,Mostly Cloudy,230,2012-11-18 22:42:00
4:41 PM,78.8,66.2,65,29.96,10.0,West,11.5,-,N/A,,Mostly Cloudy,260,2012-11-18 23:41:00
5:40 PM,73.4,66.2,78,29.96,10.0,West,8.1,-,N/A,,Mostly Cloudy,270,2012-11-19 00:40:00
6:43 PM,71.6,66.2,83,29.97,8.0,NNW,6.9,-,N/A,,Mostly Cloudy,330,2012-11-19 01:43:00
7:42 PM,71.6,66.2,83,29.98,8.0,North,8.1,-,N/A,,Mostly Cloudy,360,2012-11-19 02:42:00
8:43 PM,69.8,66.2,88,29.99,8.0,NNW,5.8,-,N/A,,Scattered Clouds,330,2012-11-19 03:43:00
9:44 PM,68.0,64.4,88,29.99,8.0,NNW,5.8,-,N/A,,Partly Cloudy,340,2012-11-19 04:44:00
10:41 PM,66.2,64.4,94,29.97,8.0,NNE,6.9,-,N/A,,Partly Cloudy,30,2012-11-19 05:41:00
11:42 PM,64.4,62.6,94,29.96,8.0,NNE,5.8,-,N/A,,Clear,30,2012-11-19 06:42:00